User: anonymous   Login
Location: Unspecified
(0.0000°N, 0.0000°E)
Time: 08:19:32
(UTC+00:00)
Language:

nSIGHT-1 - Orbit

View from above orbital plane
View from above orbital plane
View from above satellite
View from above satellite

Ground track
Ground track

The orbit data is extracted from the following two-line orbital elements,

1 42726U 98067MF  18267.90834870 +.00015647 +00000-0 +17259-3 0  9994
2 42726 051.6379 224.0711 0003813 241.8357 118.2253 15.63279105075997
Epoch (UTC): 24 September 2018 21:48:01
Eccentricity: 0.0003813
inclination: 51.6379°
perigee height: 375 km
apogee height: 381 km
right ascension of ascending node: 224.0711°
argument of perigee: 241.8357°
revolutions per day: 15.63279105
mean anomaly at epoch: 118.2253°
orbit number at epoch: 7599

The dashed part of the orbit path shows where the satellite is in the earth's shadow,  

DLR